Date,TemperatureHighF,TemperatureAvgF,TemperatureLowF,DewpointHighF,DewpointAvgF,DewpointLowF,HumidityHigh,HumidityAvg,HumidityLow,PressureMaxIn,PressureMinIn,WindSpeedMaxMPH,WindSpeedAvgMPH,GustSpeedMaxMPH,PrecipitationSumIn
2013-3-1,59.0,51.6,46.1,37.9,36.0,33.5,68,55,42,30.03,29.92,8,5,15,0.00
2013-3-2,52.1,45.1,39.6,37.1,32.2,28.6,85,62,42,30.04,29.94,14,7,24,0.00
2013-3-3,46.1,39.9,34.6,31.6,28.8,25.6,83,65,48,30.15,30.01,14,5,25,0.00
2013-3-4,63.5,42.6,33.0,29.2,27.0,22.1,83,60,26,30.24,30.14,6,3,12,0.00
2013-3-5,76.5,61.2,42.7,58.8,46.3,37.3,84,61,30,30.20,29.89,14,7,22,0.00
2013-3-6,65.8,51.5,42.8,60.4,35.9,26.7,91,57,33,30.15,29.86,17,10,28,0.07
2013-3-7,65.0,47.6,34.7,44.1,37.2,30.5,94,69,37,30.25,30.15,7,2,10,0.00
2013-3-8,66.6,50.3,39.5,51.5,43.2,37.4,96,79,38,30.26,30.18,9,2,18,0.00
2013-3-9,66.3,52.7,41.0,52.7,46.1,39.7,97,80,51,30.31,30.20,8,2,17,0.01
2013-3-10,73.6,61.2,48.6,58.9,53.7,47.2,97,78,52,30.25,30.16,11,4,18,0.00
2013-3-11,74.5,65.9,55.0,60.7,57.4,53.1,96,76,52,30.17,29.91,11,5,20,0.00
2013-3-12,68.8,64.7,54.2,65.0,58.3,46.5,95,80,50,30.03,29.85,10,6,15,0.04
2013-3-13,69.5,58.7,47.7,47.0,36.4,30.2,81,47,24,30.20,30.03,11,5,20,0.00
2013-3-14,59.9,49.2,39.8,38.5,32.3,26.8,92,54,37,30.33,30.18,8,3,13,0.00
2013-3-15,74.6,54.6,38.0,47.9,38.7,30.6,95,61,27,30.30,30.13,7,2,11,0.00
2013-3-16,80.6,64.8,49.7,51.7,46.8,39.6,85,55,30,30.17,30.00,10,5,21,0.00
2013-3-17,77.2,64.4,49.3,57.2,49.2,41.2,92,61,28,30.14,30.00,11,3,16,0.00
2013-3-18,81.4,69.6,61.0,63.6,59.9,54.2,89,72,52,30.07,29.88,11,3,18,0.00
2013-3-19,80.3,69.3,60.9,64.0,58.2,52.7,86,69,44,30.03,29.88,13,4,30,0.00
2013-3-20,64.6,58.7,50.0,53.5,50.5,47.2,91,74,63,30.04,29.86,10,3,22,0.00
2013-3-21,66.5,53.3,42.9,47.5,33.8,21.9,93,54,19,29.97,29.87,12,4,19,0.00
2013-3-22,63.5,54.2,42.4,48.8,39.7,32.6,82,59,38,30.09,29.95,8,3,17,0.00
2013-3-23,71.2,60.8,54.2,65.5,58.2,48.8,98,91,80,30.02,29.81,12,3,19,2.01
2013-3-24,85.6,72.1,61.2,72.2,65.6,60.3,98,82,52,29.83,29.53,13,7,31,0.43
2013-3-25,70.0,58.5,49.0,61.0,36.9,23.9,82,47,24,30.04,29.62,17,9,25,0.00
2013-3-26,54.2,46.8,39.2,32.4,27.5,24.0,71,48,35,30.27,30.05,16,6,24,0.00
2013-3-27,60.7,46.7,35.1,40.0,31.5,28.4,88,59,32,30.32,30.22,8,3,15,0.00
2013-3-28,67.0,50.7,38.0,44.2,37.2,23.8,92,64,20,30.32,30.23,10,2,13,0.00
2013-3-29,73.7,55.5,42.2,47.8,41.5,32.7,95,66,24,30.35,30.23,10,2,17,0.00
2013-3-30,78.3,62.1,45.5,53.6,45.7,34.9,94,62,22,30.29,30.11,9,3,18,0.00
2013-3-31,81.7,68.8,57.2,57.4,52.4,45.7,80,57,41,30.15,29.98,11,6,18,0.00